Regional Weather Roundup
Issued by NWS Goodland, KS

Home | Current Version | Previous Version | Graphics & Text | Print | Product List | Glossary On
Versions: 1 2 3 4 5 6 7 8 9 10 11 12 13 14 15 16 17 18 19 20 21 22 23 24 25 26 27 28 29 30 31 32 33 34 35 36 37 38 39 40 41 42 43 44 45 46 47 48 49 50
000
ASUS43 KGLD 141308
RWRGLD

GOODLAND FORECAST AREA HOURLY WEATHER ROUNDUP
NATIONAL WEATHER SERVICE GOODLAND KS
600 AM MST THU DEC 14 2017

...OFFICIAL OBSERVATIONS...

CITY           SKY/WX    TMP DP  RH WIND       PRES   REMARKS
GOODLAND KS    CLOUDY    33  30  88 NW13      30.14S
HILL CITY KS   CLOUDY    35  24  64 W9        30.13S
IMPERIAL NEB   CLOUDY    36  27  69 NW13      30.13R
MCCOOK NEB     CLOUDY    38  27  64 W12       30.11S
AKRON CO       FLURRIES  30  27  88 W13       30.15S WCI  20
BURLINGTON CO  CLOUDY    32  28  85 NW15      30.15S
LIMON CO       CLOUDY    27  25  92 NW16      30.17S WCI  15
$$

...UNOFFICIAL OBSERVATIONS...

CITY           SKY/WX    TMP DP  RH WIND       PRES   REMARKS
COLBY KS       CLOUDY    36  32  87 NW12      30.15S
LENORA KS        N/A     36  32  85 W8          N/A
NORTON KS      CLOUDY    36  19  51 W12       30.10
SHARON SPRINGS   N/A     34  28  79 NW13        N/A
TRENTON NEB      N/A     36  32  85 W6          N/A
KIT CARSON CO    N/A     32  27  80 MISG        N/A
YUMA CO        FAIR      30  28  93 W12       30.15S
$$




USA.gov is the U.S. government's official web portal to all federal, state and local government web resources and services.